Location: Campo Alegre
(10.4289°N, 66.6519°W)
Time: 22:48:59
(UTC+00:00)

Radarsat Rocket - Pass Details

Date: 29 May 2024
Orbit: 933 x 1491 km, 100.6° (Epoch: 21 June)

Event Time Altitude Azimuth Distance (km) Brightness Sun altitude
Rises 23:28:26 0° 171° (S) 3,584 6.6 -10.7°
Reaches altitude 10° 23:30:50 10° 173° (S) 2,635 6.0 -11.2°
Maximum altitude 23:36:35 69° 256° (WSW) 1,011 4.3 -12.5°
Drops below altitude 10° 23:42:38 10° 339° (NNW) 2,763 7.1 -13.8°
Sets 23:45:12 0° 342° (NNW) 3,771 7.8 -14.4°
